Location: Azul
(36.7830°S, 59.8500°W)
Time: 17:39:47
(UTC-03:00)

VELOX 1 - Pass Details

Date: 27 October 2021
Orbit: 627 x 641 km, 98.3° (Epoch: 06 December)

Event Time Altitude Azimuth Distance (km) Brightness Sun altitude
Rises 04:29:42 0° 149° (SSE) 2,954 ? -17.2°
Reaches altitude 10° 04:32:34 10° 129° (SE) 2,034 ? -16.7°
Maximum altitude 04:35:34 18° 86° (E) 1,568 ? -16.2°
Drops below altitude 10° 04:38:33 10° 43° (NE) 2,011 ? -15.7°
Sets 04:41:21 0° 23° (NNE) 2,907 ? -15.2°
